TimeCDT,TemperatureF,Dew PointF,Humidity,Sea Level PressureIn,VisibilityMPH,Wind Direction,Wind SpeedMPH,Gust SpeedMPH,PrecipitationIn,Events,Conditions,WindDirDegrees,DateUTC
12:15 AM,41.0,41.0,100,29.83,10.0,Calm,Calm,-,N/A,,Clear,0,2013-11-01 05:15:00
12:35 AM,42.8,41.0,93,29.83,10.0,Calm,Calm,-,N/A,,Clear,0,2013-11-01 05:35:00
12:55 AM,41.0,41.0,100,29.82,10.0,Calm,Calm,-,N/A,,Clear,0,2013-11-01 05:55:00
1:15 AM,41.0,41.0,100,29.82,10.0,Calm,Calm,-,N/A,,Clear,0,2013-11-01 06:15:00
1:35 AM,41.0,39.2,93,29.82,10.0,Calm,Calm,-,N/A,,Clear,0,2013-11-01 06:35:00
1:55 AM,41.0,41.0,100,29.82,10.0,Calm,Calm,-,N/A,,Clear,0,2013-11-01 06:55:00
2:15 AM,39.2,39.2,100,29.82,10.0,Calm,Calm,-,N/A,,Clear,0,2013-11-01 07:15:00
2:35 AM,41.0,41.0,100,29.81,10.0,Calm,Calm,-,N/A,,Clear,0,2013-11-01 07:35:00
2:55 AM,41.0,39.2,93,29.81,7.0,Calm,Calm,-,N/A,,Clear,0,2013-11-01 07:55:00
3:15 AM,39.2,39.2,100,29.81,7.0,Calm,Calm,-,N/A,,Clear,0,2013-11-01 08:15:00
3:35 AM,39.2,39.2,100,29.81,4.0,Calm,Calm,-,N/A,,Clear,0,2013-11-01 08:35:00
3:55 AM,39.2,39.2,100,29.81,5.0,Calm,Calm,-,N/A,,Clear,0,2013-11-01 08:55:00
4:15 AM,37.4,37.4,100,29.81,10.0,Calm,Calm,-,N/A,,Clear,0,2013-11-01 09:15:00
4:55 AM,37.4,37.4,100,29.81,5.0,Calm,Calm,-,N/A,,Clear,0,2013-11-01 09:55:00
5:15 AM,37.4,37.4,100,29.81,7.0,Calm,Calm,-,N/A,,Clear,0,2013-11-01 10:15:00
5:35 AM,37.4,37.4,100,29.82,10.0,Calm,Calm,-,N/A,,Clear,0,2013-11-01 10:35:00
5:55 AM,37.4,37.4,100,29.82,7.0,Calm,Calm,-,N/A,,Clear,0,2013-11-01 10:55:00
6:15 AM,37.4,37.4,100,29.83,5.0,Calm,Calm,-,N/A,,Clear,0,2013-11-01 11:15:00
6:35 AM,37.4,37.4,100,29.84,10.0,Calm,Calm,-,N/A,,Clear,0,2013-11-01 11:35:00
6:55 AM,37.4,37.4,100,29.84,4.0,Calm,Calm,-,N/A,,Clear,0,2013-11-01 11:55:00
7:15 AM,37.4,37.4,100,29.85,-9999.0,Calm,Calm,-,N/A,,Unknown,0,2013-11-01 12:15:00
7:35 AM,37.4,37.4,100,29.85,-9999.0,Calm,Calm,-,N/A,,Unknown,0,2013-11-01 12:35:00
7:55 AM,37.4,37.4,100,29.85,4.0,Calm,Calm,-,N/A,,Clear,0,2013-11-01 12:55:00
8:15 AM,37.4,37.4,100,29.86,10.0,Calm,Calm,-,N/A,,Clear,0,2013-11-01 13:15:00
8:35 AM,41.0,41.0,100,29.87,10.0,Calm,Calm,-,N/A,,Clear,0,2013-11-01 13:35:00
8:55 AM,42.8,42.8,100,29.87,10.0,Calm,Calm,-,N/A,,Clear,0,2013-11-01 13:55:00
9:15 AM,46.4,46.4,100,29.89,10.0,Calm,Calm,-,N/A,,Clear,0,2013-11-01 14:15:00
9:35 AM,50.0,48.2,94,29.89,10.0,Calm,Calm,-,N/A,,Clear,0,2013-11-01 14:35:00
9:55 AM,51.8,46.4,82,29.89,10.0,Calm,Calm,-,N/A,,Clear,0,2013-11-01 14:55:00
10:15 AM,55.4,44.6,67,29.89,10.0,Calm,Calm,-,N/A,,Clear,0,2013-11-01 15:15:00
10:35 AM,55.4,44.6,67,29.90,10.0,Calm,Calm,-,N/A,,Clear,0,2013-11-01 15:35:00
10:55 AM,59.0,44.6,59,29.90,10.0,Calm,Calm,-,N/A,,Clear,0,2013-11-01 15:55:00
11:15 AM,59.0,44.6,59,29.90,10.0,Calm,Calm,-,N/A,,Clear,0,2013-11-01 16:15:00
11:35 AM,60.8,42.8,52,29.90,10.0,Calm,Calm,-,N/A,,Clear,0,2013-11-01 16:35:00
11:55 AM,62.6,44.6,52,29.90,10.0,Calm,Calm,-,N/A,,Clear,0,2013-11-01 16:55:00
12:15 PM,64.4,41.0,42,29.90,10.0,Calm,Calm,-,N/A,,Clear,0,2013-11-01 17:15:00
12:35 PM,64.4,42.8,45,29.89,10.0,WNW,4.6,-,N/A,,Clear,290,2013-11-01 17:35:00
12:55 PM,66.2,41.0,40,29.89,10.0,West,9.2,-,N/A,,Clear,280,2013-11-01 17:55:00
1:15 PM,66.2,39.2,37,29.89,10.0,West,12.7,17.3,N/A,,Clear,260,2013-11-01 18:15:00
1:35 PM,66.2,41.0,40,29.88,10.0,West,11.5,-,N/A,,Clear,270,2013-11-01 18:35:00
1:55 PM,64.4,42.8,45,29.88,10.0,West,9.2,-,N/A,,Clear,280,2013-11-01 18:55:00
2:15 PM,68.0,42.8,40,29.87,10.0,West,6.9,-,N/A,,Clear,280,2013-11-01 19:15:00
2:35 PM,68.0,42.8,40,29.86,10.0,WNW,8.1,-,N/A,,Clear,300,2013-11-01 19:35:00
2:55 PM,68.0,41.0,37,29.86,10.0,West,11.5,17.3,N/A,,Clear,270,2013-11-01 19:55:00
3:15 PM,68.0,41.0,37,29.85,10.0,West,10.4,17.3,N/A,,Clear,280,2013-11-01 20:15:00
5:15 PM,64.4,39.2,40,29.88,10.0,WNW,13.8,19.6,N/A,,Clear,300,2013-11-01 22:15:00
5:35 PM,64.4,41.0,42,29.89,10.0,NW,8.1,-,N/A,,Scattered Clouds,320,2013-11-01 22:35:00
5:55 PM,62.6,41.0,45,29.89,10.0,NW,5.8,-,N/A,,Clear,310,2013-11-01 22:55:00
6:15 PM,60.8,41.0,48,29.90,10.0,NW,3.5,-,N/A,,Clear,310,2013-11-01 23:15:00
6:35 PM,57.2,41.0,55,29.91,10.0,NW,4.6,-,N/A,,Scattered Clouds,310,2013-11-01 23:35:00
6:55 PM,57.2,41.0,55,29.93,10.0,WNW,4.6,-,N/A,,Scattered Clouds,300,2013-11-01 23:55:00
7:15 PM,57.2,39.2,51,29.94,10.0,NW,11.5,-,N/A,,Mostly Cloudy,320,2013-11-02 00:15:00
7:35 PM,59.0,41.0,51,29.96,10.0,NNW,9.2,-,N/A,,Scattered Clouds,330,2013-11-02 00:35:00
7:55 PM,55.4,41.0,58,29.96,10.0,NNW,8.1,-,N/A,,Clear,330,2013-11-02 00:55:00
8:15 PM,55.4,41.0,58,29.98,10.0,NNW,9.2,-,N/A,,Clear,330,2013-11-02 01:15:00
8:35 PM,53.6,41.0,62,29.99,10.0,NNW,8.1,-,N/A,,Clear,330,2013-11-02 01:35:00
8:55 PM,53.6,41.0,62,30.00,10.0,NNW,6.9,-,N/A,,Clear,330,2013-11-02 01:55:00
9:15 PM,53.6,41.0,62,30.01,10.0,NW,8.1,-,N/A,,Clear,320,2013-11-02 02:15:00
9:35 PM,51.8,41.0,67,30.02,10.0,NW,5.8,-,N/A,,Clear,310,2013-11-02 02:35:00
9:55 PM,50.0,41.0,71,30.03,10.0,NW,4.6,-,N/A,,Clear,320,2013-11-02 02:55:00
10:15 PM,48.2,41.0,76,30.04,10.0,NNW,3.5,-,N/A,,Clear,330,2013-11-02 03:15:00
10:35 PM,46.4,41.0,81,30.04,10.0,Calm,Calm,-,N/A,,Clear,0,2013-11-02 03:35:00
10:55 PM,44.6,41.0,87,30.05,10.0,Calm,Calm,-,N/A,,Clear,0,2013-11-02 03:55:00
11:15 PM,44.6,41.0,87,30.05,10.0,Calm,Calm,-,N/A,,Clear,0,2013-11-02 04:15:00
11:35 PM,41.0,39.2,93,30.05,10.0,Calm,Calm,-,N/A,,Clear,0,2013-11-02 04:35:00
11:55 PM,41.0,39.2,93,30.05,10.0,Calm,Calm,-,N/A,,Clear,0,2013-11-02 04:55:00